[[{"header":{"parameterUnit":"m.s-1","parameterCategory":1,"la1":30.2991,"la2":30.254,"lo1":-89.0895,"lo2":-89.0444,"dy":0.0017,"dx":0.0017,"nx":28,"ny":28,"refTime":"2024-07-31T09:00:00:Z","depth":0,"parameterNumber":2,"parameterNumberName":"U-component_of_WINDS"},"data":[0,0,0,0,0,0,0,0,0,0,0,0,0,0,0,0,0,0,0,0,0,0,0,0,0,0,0,0,0,0,0,0,0,0,0,0,0,0,0,0,0,0,0,0,0,0,0,0,0,0,0,0,0,0,0,0,0,0,1.3947,1.3949,0,1.4109,1.4111,1.4113,1.417,1.417,1.4169,1.4169,1.4336,1.4341,1.4346,0,0,0,0,0,0,0,0,0,0,0,0,0,1.3687,1.3692,1.3947,1.3949,1.3951,1.4109,1.4111,1.4113,1.417,1.417,1.4169,1.4168,1.4334,1.434,1.4346,0,0,0,0,0,0,0,0,0,0,0,0,0,1.382,1.3693,1.3947,1.3998,1.4005,1.4108,1.4111,1.4114,1.4171,1.417,1.4169,1.4168,1.4332,1.434,1.4347,1.4411,0,0,1.437,1.4373,0,0,0,0,0,0,0,0,1.3812,1.3829,1.3989,1.3995,1.4002,1.4119,1.4081,1.4214,1.4171,1.4108,1.4169,1.4168,1.4264,1.4277,1.431,1.4419,1.4426,1.4371,1.4375,1.4379,1.4381,0,0,0,0,0,0,0,1.3803,1.3823,1.4011,1.3991,1.3999,1.4014,1.4032,1.4107,1.4189,1.4113,1.4118,1.4136,1.4268,1.4303,1.4314,1.4429,1.4371,1.4377,1.4382,1.4385,1.4599,1.46,0,0,0,0,0,0,1.3785,1.3815,1.4006,1.4016,1.3903,1.4019,1.4039,1.4082,1.4188,1.4204,1.4137,1.4138,1.429,1.4305,1.432,1.4402,1.4378,1.4385,1.439,1.4598,1.4599,1.46,0,0,0,0,0,0,1.3779,1.3802,1.4,1.3917,1.3943,1.4025,1.4072,1.4086,1.412,1.4206,1.4221,1.4157,1.429,1.431,1.4388,1.4409,1.4389,1.4396,1.4596,1.4598,1.46,1.4566,0,0,0,0,0,0,1.3772,1.3799,1.3824,1.3917,1.3947,1.4064,1.4074,1.409,1.4133,1.4137,1.4229,1.4244,1.4291,1.4377,1.4396,1.4419,1.4402,1.4595,1.4597,1.4599,1.4566,1.4567,1.4567,0,0,0,0,0,1.3762,1.3809,1.3825,1.3848,1.398,1.4065,1.4083,1.4136,1.4135,1.4161,1.4216,1.4241,1.4403,1.4384,1.4406,1.4432,1.4594,1.4596,1.4599,1.4566,1.4566,1.4567,0,0,0,0,0,0,1.3717,1.3822,1.3841,1.3919,1.3983,1.4075,1.4109,1.4135,1.4201,1.4201,1.4265,1.4285,1.4358,1.4403,1.438,1.4499,1.45,1.4507,1.4467,1.4469,1.447,1.4457,1.4408,0,0,0,0,0,1.3716,1.3776,1.3865,1.3925,1.3956,1.4027,1.4066,1.4101,1.417,1.4197,1.4258,1.4324,1.439,1.4432,1.4498,1.4573,1.4594,1.4601,1.4602,1.4602,1.4607,1.465,1.4654,1.4609,1.4609,1.4609,0,0,1.3715,1.3779,1.3814,1.3917,1.3971,1.4031,1.4049,1.4113,1.4158,1.4207,1.4284,1.4331,1.4409,1.4486,1.4523,1.4525,1.4625,1.4606,1.4605,1.461,1.4653,1.4657,1.4661,1.4611,1.461,1.461,0,0,1.3743,1.3798,1.3854,1.3907,1.3988,1.4035,1.4048,1.4136,1.4169,1.4248,1.4285,1.4341,1.4453,1.4507,1.4549,1.4597,1.4622,1.4617,1.462,1.4661,1.4665,1.4668,1.4685,1.469,1.4622,1.4622,1.4622,0,1.3731,1.3824,1.388,1.3941,1.3986,1.4032,1.4089,1.4138,1.4236,1.4266,1.4267,1.4409,1.4465,1.4554,1.4566,1.4599,1.4616,1.4606,1.466,1.4664,1.4668,1.4684,1.469,1.4621,1.4621,1.4621,1.4621,0,1.3805,1.3869,1.3905,1.3997,1.4046,1.4105,1.4169,1.4212,1.4243,1.429,1.4369,1.4438,1.4517,1.4542,1.4573,1.4636,1.4635,1.4647,1.4649,1.467,1.4686,1.4693,1.4619,1.4619,1.462,1.462,0,0,1.381,1.3932,1.3944,1.3986,1.4079,1.4129,1.419,1.4268,1.4303,1.4369,1.4421,1.4515,1.4527,1.4575,1.4613,1.4649,1.4682,1.4657,1.466,1.4658,1.4754,1.4744,1.475,1.4699,1.4701,1.4702,1.4747,0,1.385,1.396,1.4012,1.41,1.4159,1.4204,1.4257,1.4319,1.4364,1.4422,1.4472,1.4537,1.4548,1.4577,1.4615,1.4669,1.4702,1.4667,1.4749,1.4751,1.4727,1.4759,1.4748,1.4788,1.4754,1.4756,1.4756,0,1.3911,1.3976,1.4069,1.4154,1.4181,1.4228,1.4303,1.4357,1.4428,1.4459,1.4511,1.4548,1.4614,1.4611,1.4703,1.4678,1.4715,1.4747,1.475,1.4759,1.4754,1.4768,1.4802,1.4807,1.4767,1.4766,1.4766,0,1.3903,1.4015,1.4085,1.412,1.4221,1.4252,1.4296,1.4366,1.441,1.4476,1.4504,1.4577,1.4617,1.4672,1.4727,1.4721,1.4813,1.4816,1.484,1.4839,1.4857,1.4855,1.4897,1.4882,1.4882,1.4882,1.4881,0,1.3942,1.3997,1.4083,1.4126,1.4189,1.4248,1.4309,1.4356,1.4418,1.4471,1.4515,1.4564,1.4634,1.4692,1.4735,1.4804,1.4822,1.4848,1.4859,1.4844,1.4841,1.4868,1.4867,1.4883,1.4883,1.4883,1.4882,0,1.3944,1.4004,1.4083,1.4172,1.4195,1.4238,1.4314,1.4357,1.4405,1.4471,1.449,1.4565,1.4635,1.4695,1.4788,1.4818,1.4888,1.4902,1.4864,1.4869,1.489,1.4887,1.4951,1.4962,1.4939,1.494,1.494,0,1.3964,1.4008,1.4101,1.4139,1.4182,1.4244,1.4288,1.4348,1.4392,1.4476,1.451,1.4583,1.4645,1.4755,1.4817,1.4888,1.4903,1.4921,1.4914,1.4898,1.4903,1.4899,1.4904,1.492,1.492,1.492,1.492,0,1.3994,1.4021,1.4083,1.4155,1.4206,1.4266,1.4327,1.4356,1.4428,1.4475,1.4547,1.4595,1.4689,1.4761,1.4839,1.4884,1.4914,1.4922,1.4931,1.4916,1.4892,1.4904,1.4863,1.492,1.492,1.492,1.492,1.492,1.4006,1.4046,1.4118,1.4185,1.4237,1.4293,1.4338,1.4391,1.4452,1.4533,1.4565,1.4638,1.4709,1.4816,1.4861,1.492,1.4924,1.4938,1.4942,1.4944,1.4941,1.4883,1.4934,1.4934,1.4934,1.4934,1.4935,0,1.4037,1.4085,1.4146,1.423,1.4283,1.4306,1.4375,1.4418,1.4481,1.4544,1.4604,1.4687,1.4757,1.4824,1.4898,1.4931,1.4947,1.4949,1.4947,1.4956,1.4933,1.4917,1.4935,1.4935,1.4935,1.4935,1.4935,1.4935,1.4059,1.4128,1.4164,1.426,1.4308,1.438,1.4417,1.4469,1.4519,1.4609,1.4667,1.4711,1.4776,1.4855,1.492,1.4938,1.4963,1.4961,1.4982,1.4959,1.4958,1.4957,1.4943,1.4966,1.4966,1.5001,1.5002,1.5002]},{"header":{"parameterUnit":"m.s-1","parameterCategory":1,"la1":30.2991,"la2":30.254,"lo1":-89.0895,"lo2":-89.0444,"dy":0.0017,"dx":0.0017,"nx":28,"ny":28,"refTime":"2024-07-31T09:00:00:Z","depth":0,"parameterNumber":3,"parameterNumberName":"V-component_of_WINDS"},"data":[0,0,0,0,0,0,0,0,0,0,0,0,0,0,0,0,0,0,0,0,0,0,0,0,0,0,0,0,0,0,0,0,0,0,0,0,0,0,0,0,0,0,0,0,0,0,0,0,0,0,0,0,0,0,0,0,0,0,2.9771,2.9771,0,2.9732,2.9732,2.9731,2.9709,2.9709,2.9709,2.9709,2.9663,2.9662,2.9661,0,0,0,0,0,0,0,0,0,0,0,0,0,2.982,2.982,2.9771,2.9771,2.977,2.9732,2.9732,2.9731,2.9709,2.9709,2.9709,2.9708,2.9664,2.9662,2.9661,0,0,0,0,0,0,0,0,0,0,0,0,0,2.9792,2.9819,2.9771,2.9754,2.9753,2.9733,2.9732,2.9731,2.9709,2.9709,2.9709,2.9708,2.9664,2.9663,2.9661,2.9653,0,0,2.9656,2.9655,0,0,0,0,0,0,0,0,2.9794,2.979,2.9757,2.9755,2.9753,2.9725,2.9733,2.9705,2.9709,2.9725,2.9709,2.9708,2.9684,2.968,2.9673,2.9651,2.9649,2.9656,2.9655,2.9654,2.9653,0,0,0,0,0,0,0,2.9796,2.9792,2.9755,2.9757,2.9754,2.9747,2.9743,2.9727,2.9705,2.9724,2.9722,2.9718,2.9683,2.9675,2.9672,2.9648,2.9656,2.9654,2.9653,2.9652,2.9617,2.9617,0,0,0,0,0,0,2.9801,2.9793,2.9757,2.9754,2.9774,2.9746,2.9742,2.9734,2.9706,2.9701,2.9718,2.9717,2.9678,2.9674,2.967,2.9659,2.9654,2.9652,2.9651,2.9617,2.9617,2.9617,0,0,0,0,0,0,2.9802,2.9798,2.9758,2.9773,2.9768,2.9746,2.9738,2.9734,2.9726,2.9702,2.9697,2.9715,2.9678,2.9673,2.9658,2.9657,2.9651,2.965,2.9616,2.9617,2.9617,2.9636,0,0,0,0,0,0,2.9804,2.9798,2.9796,2.9774,2.9767,2.9748,2.9738,2.9733,2.9724,2.9722,2.9697,2.9693,2.9677,2.966,2.9656,2.9655,2.9649,2.9616,2.9617,2.9617,2.9635,2.9637,2.9638,0,0,0,0,0,2.9805,2.9802,2.9796,2.9792,2.9764,2.9748,2.9744,2.9728,2.9724,2.9721,2.9705,2.9693,2.9658,2.9659,2.9654,2.9652,2.9616,2.9616,2.9617,2.9635,2.9637,2.9638,0,0,0,0,0,0,2.9823,2.9799,2.9792,2.9782,2.9767,2.9744,2.974,2.973,2.9715,2.9714,2.9693,2.9687,2.9674,2.9661,2.9663,2.9643,2.9636,2.9635,2.9651,2.9653,2.9654,2.9657,2.9647,0,0,0,0,0,2.9826,2.9817,2.9795,2.9788,2.9781,2.9762,2.9754,2.9743,2.9727,2.972,2.9703,2.9686,2.9671,2.9661,2.9646,2.9634,2.9627,2.963,2.9631,2.9632,2.9632,2.9624,2.9625,2.9617,2.9617,2.9617,0,0,2.9832,2.9817,2.9812,2.9791,2.9779,2.9768,2.9757,2.9746,2.9737,2.9717,2.9703,2.969,2.9669,2.9656,2.9649,2.9645,2.9632,2.9633,2.9634,2.9632,2.9624,2.9625,2.9625,2.9617,2.9617,2.9617,0,0,2.9836,2.9825,2.9818,2.9806,2.9788,2.9775,2.9774,2.9752,2.9743,2.9729,2.9714,2.9702,2.9677,2.9663,2.9653,2.9653,2.9641,2.9648,2.9655,2.9648,2.9648,2.9649,2.9648,2.9648,2.9648,2.9648,2.9648,0,2.9845,2.9829,2.9814,2.9805,2.9795,2.978,2.9772,2.976,2.9737,2.9731,2.9727,2.9695,2.968,2.9663,2.9663,2.9656,2.9652,2.9651,2.965,2.965,2.965,2.9649,2.9649,2.9649,2.9648,2.9648,2.9648,0,2.9841,2.983,2.9826,2.9807,2.9797,2.9788,2.9771,2.9762,2.9752,2.974,2.9725,2.9706,2.9687,2.9682,2.9671,2.9663,2.9662,2.9654,2.9647,2.9652,2.9651,2.965,2.965,2.965,2.9649,2.9649,0,0,2.9854,2.9828,2.9827,2.9818,2.9797,2.9788,2.9778,2.9761,2.9754,2.9739,2.9729,2.9709,2.9702,2.969,2.9677,2.9671,2.9672,2.9664,2.9663,2.9666,2.9661,2.9667,2.9667,2.9665,2.9665,2.9664,2.9663,0,2.9855,2.9839,2.9825,2.9812,2.9802,2.9787,2.9778,2.9764,2.9752,2.974,2.9725,2.9711,2.9704,2.9696,2.969,2.9674,2.9671,2.9673,2.9654,2.9653,2.9659,2.9666,2.9672,2.9672,2.9662,2.9662,2.9662,0,2.9854,2.9842,2.9829,2.981,2.9805,2.9797,2.9781,2.9771,2.9753,2.9745,2.9733,2.972,2.9707,2.9702,2.9683,2.9685,2.9676,2.9667,2.9666,2.9663,2.9658,2.9663,2.9671,2.9671,2.9662,2.9662,2.9662,0,2.9865,2.9845,2.9835,2.9828,2.9805,2.98,2.979,2.9773,2.9764,2.9749,2.9743,2.9726,2.9717,2.9703,2.9686,2.9684,2.9668,2.9662,2.966,2.966,2.9657,2.9657,2.9663,2.9652,2.9652,2.9652,2.9652,0,2.9868,2.986,2.984,2.9833,2.9824,2.9808,2.9799,2.9787,2.9772,2.9762,2.9748,2.9738,2.9716,2.9704,2.969,2.9676,2.9672,2.9663,2.966,2.9664,2.9665,2.9658,2.9657,2.9652,2.9652,2.9652,2.9652,0,2.9878,2.9864,2.9852,2.9833,2.9827,2.9821,2.9804,2.9796,2.9784,2.9771,2.9767,2.9747,2.9731,2.9713,2.9691,2.9681,2.9668,2.9663,2.9675,2.9673,2.9672,2.9672,2.9672,2.9671,2.9662,2.9662,2.9662,0,2.9881,2.9875,2.9855,2.9848,2.9839,2.9828,2.982,2.9803,2.9794,2.9775,2.9769,2.9753,2.9739,2.9715,2.9697,2.968,2.9674,2.9675,2.9671,2.9676,2.9673,2.9673,2.9672,2.9676,2.9676,2.9676,2.9676,0,2.9886,2.988,2.9869,2.9855,2.9846,2.9834,2.9821,2.9816,2.9797,2.9787,2.9772,2.9762,2.974,2.9724,2.9705,2.9692,2.9681,2.9678,2.9677,2.9681,2.9688,2.9684,2.9677,2.9678,2.9678,2.9678,2.9678,2.9677,2.9892,2.9886,2.9872,2.986,2.9849,2.9838,2.983,2.9817,2.9805,2.9788,2.9778,2.9763,2.9746,2.9719,2.9707,2.9694,2.969,2.9688,2.9688,2.9687,2.9689,2.9691,2.9691,2.9691,2.969,2.969,2.969,0,2.9896,2.9887,2.9876,2.986,2.985,2.9843,2.9828,2.982,2.9808,2.9793,2.9781,2.9763,2.9747,2.9729,2.9711,2.9704,2.9699,2.97,2.97,2.9697,2.9693,2.9696,2.9705,2.9705,2.9705,2.9705,2.9705,2.9705,2.9897,2.9887,2.9879,2.9863,2.9853,2.984,2.9832,2.9821,2.981,2.9792,2.9779,2.9768,2.9752,2.9733,2.9718,2.9712,2.9706,2.971,2.9703,2.9699,2.9698,2.9696,2.9699,2.9709,2.9709,2.9708,2.9708,2.9708]}]]